Green Bay, WI

9:52 PM CDT on July 27, 2017 (GMT -0500)
Austin Straubel International

Weather History for KGRB - August, 2014

Change the Weather History Date:

Tuesday, August 5, 2014

  Actual Average Record
Temperature  
Mean Temperature 69 °F 68 °F  
Max Temperature 79 °F 79 °F 99 °F (1947)
Min Temperature 58 °F 58 °F 41 °F (1957)
Degree Days  
Heating Degree Days 0 1  
Month to date heating degree days 0 5  
Since 1 June heating degree days 46 120  
Since 1 July heating degree days 15 28  
Cooling Degree Days 4 4  
Month to date cooling degree days 26 21  
Year to date cooling degree days 247 272  
Since 1 June cooling degree days 231 254  
Growing Degree Days 19 (Base 50)    
Moisture  
Dew Point 58 °F    
Average Humidity 73    
Maximum Humidity 97    
Minimum Humidity 48    
Precipitation  
Precipitation 0.00 in 0.11 in 1.62 in (1935)
Month to date precipitation 0.03 0.54  
Year to date precipitation 15.95 17.57  
Snow  
Snow 0.00 in 0.00 in 0.00 in ()
Month to date snowfall 0.0 0.0  
Since 1 June snowfall 0.0 0.0  
Since 1 July snowfall 0.0 0.0  
Snow Depth 0.00 in    
Sea Level Pressure  
Sea Level Pressure 30.08 in    
Wind  
Wind Speed 6 mph (NE)    
Max Wind Speed 13 mph    
Max Gust Speed 19 mph    
Visibility 10 miles    
Events      
T = Trace of Precipitation, MM = Missing Value Source: NWS Daily Summary

Daily Weather History Graph

Daily Weather History Graph

Search for Another Location

Airport or City:

Trip Planner

Search our weather history database for the weather conditions in past years. The results will help you decide how hot, cold, wet, or windy it might be!

Date:

Astronomy

Aug. 05, 2014 Rise Set
Actual Time 5:43 AM CDT 8:12 PM CDT
Civil Twilight 5:10 AM CDT 8:45 PM CDT
Nautical Twilight 4:29 AM CDT 9:25 PM CDT
Astronomical Twilight 3:43 AM CDT 10:12 PM CDT
Moon 3:28 PM CDT (8/5) 12:31 AM CDT (8/5)
Length of Visible Light 15h 34m
Length of Day
14h 28m
Waxing Gibbous, 68% of the Moon is Illuminated
Aug 5
Waxing Gibbous
Aug 10
Full
Aug 17
Last Quarter
Aug 25
New
Sep 2
First Quarter

Hourly Weather History & Observations

Time (CDT) Temp. Dew Point Humidity Pressure Visibility Wind Dir Wind Speed Gust Speed Precip Events Conditions
12:53 AM 61.0 °F 59.0 °F 93% 30.08 in 10.0 mi NW 3.5 mph - N/A   Overcast
1:53 AM 59.0 °F 57.9 °F 96% 30.08 in 10.0 mi Calm Calm - N/A   Mostly Cloudy
2:53 AM 60.1 °F 57.9 °F 93% 30.07 in 10.0 mi North 6.9 mph - N/A   Mostly Cloudy
3:53 AM 61.0 °F 59.0 °F 93% 30.07 in 10.0 mi North 5.8 mph - N/A   Mostly Cloudy
4:53 AM 61.0 °F 59.0 °F 93% 30.07 in 10.0 mi North 4.6 mph - N/A   Overcast
5:53 AM 63.0 °F 55.9 °F 78% 30.07 in 10.0 mi ENE 6.9 mph - N/A   Scattered Clouds
6:53 AM 64.9 °F 57.0 °F 75% 30.09 in 10.0 mi NE 6.9 mph - N/A   Clear
7:42 AM 66.9 °F 57.0 °F 70% 30.10 in 10.0 mi ENE 5.8 mph - N/A   Partly Cloudy
7:53 AM 66.9 °F 57.0 °F 70% 30.10 in 10.0 mi ENE 9.2 mph - N/A   Clear
8:53 AM 71.1 °F 60.1 °F 68% 30.10 in 10.0 mi NNE 9.2 mph - N/A   Mostly Cloudy
9:53 AM 71.1 °F 60.1 °F 68% 30.10 in 10.0 mi NNE 8.1 mph - N/A   Scattered Clouds
10:53 AM 73.0 °F 61.0 °F 66% 30.11 in 10.0 mi ENE 10.4 mph - N/A   Clear
11:53 AM 75.9 °F 60.1 °F 58% 30.11 in 10.0 mi North - - N/A   Mostly Cloudy
12:53 PM 75.9 °F 59.0 °F 56% 30.10 in 10.0 mi Variable 3.5 mph - N/A   Mostly Cloudy
1:53 PM 78.1 °F 59.0 °F 52% 30.09 in 10.0 mi NNE 8.1 mph - N/A   Clear
2:53 PM 78.1 °F 59.0 °F 52% 30.08 in 10.0 mi ENE 10.4 mph - N/A   Clear
3:53 PM 78.1 °F 57.0 °F 48% 30.08 in 10.0 mi NE 9.2 mph - N/A   Clear
4:53 PM 77.0 °F 57.0 °F 50% 30.08 in 10.0 mi ENE 5.8 mph - N/A   Clear
5:53 PM 75.9 °F 57.0 °F 52% 30.07 in 10.0 mi NE 8.1 mph - N/A   Clear
6:53 PM 73.9 °F 55.9 °F 53% 30.06 in 10.0 mi ENE 5.8 mph - N/A   Clear
7:53 PM 69.1 °F 55.9 °F 63% 30.06 in 10.0 mi North 3.5 mph - N/A   Clear
8:53 PM 66.0 °F 57.0 °F 73% 30.07 in 10.0 mi Calm Calm - N/A   Clear
9:53 PM 62.1 °F 57.9 °F 86% 30.09 in 10.0 mi Calm Calm - N/A   Clear
11:53 PM 59.0 °F 55.9 °F 90% 30.08 in 10.0 mi Calm Calm - N/A   Clear